941014 897  0.4+  0.1-    010923 644  0.2-  0.3+    020120 170  0.7+  1.2-  

941014 897  0.4+  0.1+    010923 644  0.1+  0.0     020121 704  1.7+  1.2+  

941014 897  0.3-  0.1-    010923 349  0.5+  0.6+    020121 704  1.0+  0.6-  

941014 360  0.7+  0.2-    010923 349  1.5-  0.5+    020121 704 (2.3+  0.9-) 

941014 360  0.7+  0.2-    010923 349  1.0-  0.3+    020201 402  1.2-  0.9-  

941017 605  0.5+  0.7+    010924 170  0.2-  0.9+    020201 402  1.5-  0.8-  

941017 605  1.2+  1.7+    010924 170  0.5-  1.4+    020201 402  0.9-  0.3-  

941029 864  0.7+  0.5-    010924 170 (2.5-  2.8+)   020208 170  0.4+  0.9+  

941029 864  1.3+  0.4+    010924 213 (2.7-  2.4-)   020220 704  0.3+  0.1+  

941030 360  0.2+  0.2+    010924 213 (4.0-  1.6+)   020220 704  0.1+  1.1+  

941030 360  0.6+  0.7+    010924 213 (5.0-  6.0-)   020220 704  0.0   0.9+  

941030 410  0.9-  0.2+    010924 213 (3.0-  1.0+)   020220 704  0.2-  0.1-  

941030 410  0.5+  0.6-    011013 046  0.0   0.1-    020309 704  0.5-  0.5+  

941031 801  0.1+  0.4+    011013 046  0.1+  0.1+    020309 704 (0.1+  2.0+) 

941031 801  0.0   0.1+    011013 046  0.0   0.0     020309 704 (1.1+  2.9+) 

941101 675  0.5+  0.7-    011013 046  0.2-  0.3+    020309 704  1.3+  1.6+  

941101 897  0.1-  0.9+    011014 704 (1.1+ 10.2-)   020309 704  1.0+  0.0   

941101 897  0.7-  0.3+    011014 704  0.2+  0.9-    2003/                   

941101 897  0.6-  0.6+    011014 704 (0.3+  2.9+)   030113 291  0.6-  0.2+  

941101 605  1.8-  0.8+    011014 402  0.2+  0.0     030113 291  0.5-  1.0+  

941101 605  1.8-  0.6+    011014 402  0.2-  0.4+    030113 291  0.6-  0.7+  

941101 605  1.2-  0.6+    011014 402  0.9-  0.2+    030130 644  0.3+  0.4+  

941102 675 (3.8+  0.5-)   011021 170  1.0+  0.7+    030130 644  0.3+  0.6+  

941102 675 (2.9+  0.2-)   011021 170  0.5-  0.3+    030130 644  0.3+  0.7+  

941102 605  0.2-  0.2+    011029 170  0.4-  0.5-    030203 360  0.8-  0.8+  

941102 605  0.3-  0.2+    011102 118  0.2+  0.1+    030203 360  0.2+  0.4+  

941104 410  0.3-  0.4+    011102 118  0.3+  0.6-    030203 360  0.2-  0.2+  

941104 410  0.1-  0.6+    011110 704  0.2+  0.1+    2007/                   

941104 410  0.1-  0.2+    011110 704  0.2-  0.7+    070618 H06  1.7-  1.1+  

941104 605  1.0-  0.3+    011110 704  1.1+  0.3+    070618 H06  0.6+  0.8+  

941104 605  0.0   0.5+    011111 118  0.0   0.5+    070619 H06  0.5-  0.1+  

941108 801  0.1+  0.3+    011111 118  0.0   0.4+    070619 H06  0.4+  1.5+  

941108 801  0.1-  1.1-    011111 704  0.2+  1.3+    070705 415  0.5+  0.5+  

941108 360  0.3+  0.2-    011111 704  0.7+  0.9+    070705 415  0.2+  0.1-  

941108 360  0.3+  0.2-    011111 704  0.1-  0.7+    070805 215  0.3+  1.0+  

941122 605  0.8-  0.3-    011111 704  0.0   1.7+    070811 349 (2.4+  0.2-) 

941122 605  0.0   0.2+    011111 704  0.3-  1.2+    070812 349 (3.0+  0.7-) 

941123 410  0.8-  0.9-    011114 402  0.0   0.1-    070825 204  0.2+  0.9+  



NAKANO

         **** Don't distribute anyone except personal use only ****

                (C) Copyright 2007 OAA/ComputingSection

write mail from CFAD0::NAKANO on 2007-09-16 02:42:26(JST).

 





  44P/Reinmuth 2 

Epoch 2001 Feb. 20.0 TT = JDT 2451960.5  

T 2001 Feb. 19.99154 TT                                 Nakano

q   1.8897243            (2000.0)            P               Q

n   0.14867020     Peri.   46.10327     +0.94717921     +0.30154532

a   3.5290143      Node   296.06854     -0.31789541     +0.83782582

e   0.4645178      Incl.    6.98177     -0.04235634     +0.45510253

P   6.63

From 292 observations 1974-2000, mean residual 0".78.  Nongravitational

   parameters A1 = -0.43 +/- 0.03, A2 = -0.0115 +/- 0.0002.



NAKANO

         **** Don't distribute anyone except personal use only ****

                (C) Copyright 2000 OAA/ComputingSection

write mail from CFAD0::NAKANO on 2000-09-12 01:29:28(JST).

 







–ß‚è‚Ü‚·B